Flag for South Korea Weather past 2 weeks in Busan, South Korea

Now
66 °F

Light rain. Fog.


Feels Like: 66 °F
Forecast: 69 / 73 °F
Wind: 10 mph from Northeast

Location: Pusan / Kimhae International Airport

Current Time: Jul 7, 2015 at 8:44:48 PM

Latest Report: Jul 7, 2015 at 8:00 PM


Visibility: 2 mi

Pressure: 29.83 "Hg

Humidity: 94%

Dew point: 64 °F

Location of BusanLocation

Historic Weather in Busan — Graph

°F

Busan temperature yesterday

Maximum temperature yesterday: 77 °F (at 11:00 AM)
Minimum temperature yesterday: 64 °F (at 3:00 AM)
Average temperature yesterday: 71 °F

Past Weeks' High & Low Weather Summary

 TemperatureHumidityPressure
High84 °F (Jul 3, 12:00 PM)94% (Jun 23, 4:00 AM)29.92 "Hg (Jun 23, 4:00 AM)
Low63 °F (Jun 23, 4:00 AM)40% (Jul 2, 11:00 AM)29.30 "Hg (Jun 26, 11:00 AM)
Average72 °F75%29.72 "Hg
* Reported Jun 22 7:00 PM — Jul 7 7:00 PM, Busan, Weather by CustomWeather, © 2015

Note: Actual official high and low records may vary slightly from our data, if they occured in-between our weather recording intervals... More about our weather records

Advertising

Busan weather history for previous 24 hours

 ConditionsComfort  
Time TempWeatherWind HumidityBarometerVisibility
7:00 PM
Tue, Jul 7
66 °FHeavy rain. Fog.12 mph94%29.83 "Hg2 mi
6:00 PM66 °FLight rain. Fog.10 mph94%29.83 "Hg3 mi
5:00 PM66 °FLight rain. Fog.10 mph94%29.83 "Hg2 mi
4:00 PM68 °FLight rain. Mostly cloudy.9 mph88%29.83 "Hg4 mi
3:00 PM68 °FLight rain. Mostly cloudy.9 mph83%29.83 "Hg4 mi
2:00 PM68 °FLight rain. Mostly cloudy.12 mph88%29.86 "Hg4 mi
1:00 PM68 °FLight rain. Fog.8 mph88%29.89 "Hg3 mi
12:00 PM68 °FLight rain. Mostly cloudy.13 mph83%29.89 "Hg5 mi
11:00 AM68 °FLight rain. More clouds than sun.10 mph83%29.92 "Hg5 mi
10:00 AM68 °FLight rain. More clouds than sun.7 mph78%29.89 "Hg6 mi
9:00 AM68 °FLight rain. More clouds than sun.2 mph78%29.89 "Hg6 mi
8:00 AM68 °FLight rain. More clouds than sun.3 mph78%29.89 "Hg6 mi
7:00 AM68 °FLight rain. More clouds than sun.5 mph78%29.86 "Hg6 mi
6:00 AM66 °FLight rain. Overcast.5 mph83%29.86 "Hg6 mi
5:00 AM68 °FLight rain. Overcast.1 mph78%29.86 "Hg6 mi
4:00 AM68 °FLight rain. Overcast.7 mph78%29.86 "HgN/A
3:00 AM68 °FLight rain. Overcast.6 mph78%29.86 "HgN/A
2:00 AM68 °FPassing clouds.5 mph78%29.89 "HgN/A
1:00 AM70 °FClear.6 mph73%29.89 "Hg10 mi
12:00 AM70 °FClear.6 mph69%29.89 "Hg10 mi
11:00 PM
Mon, Jul 6
70 °FClear.5 mph73%29.89 "Hg10 mi
10:00 PM72 °FClear.6 mph69%29.89 "Hg10 mi
9:00 PM72 °FClear.5 mph69%29.89 "Hg10 mi
8:00 PM72 °FClear.5 mph73%29.89 "Hg10 mi
Weather by CustomWeather, © 2015

See weather overviewHow to use our weather pages